Weather observations for the past three days for
Lamoni, Lamoni Municipal Airport
Imperial (Metric)
Date Time (cdt) Wind (mph) Vis. (mi.) Weather Sky Cond. Temperature (ºF) Relative Humidity Wind Chill (°F) Heat Index (°F) Pressure Precipitation (in)
Air Dwpt 6 hour altimeter (in) sea level (mb) 1 hr 3 hr 6 hr
Max. Min.
06 11:53 NW 15 G 22 10.00 Fair CLR 52 25 35% 30.09 1019.1
06 10:53 N 8 10.00 Fair CLR 51.1 28 41% 30.08 1018.8
06 09:53 N 7 10.00 Fair CLR 48.9 28.9 46% 46 30.07 1018.6
06 08:53 N 8 10.00 Fair CLR 46 28.9 51% 42 30.06 1018.4
06 07:53 N 8 10.00 Fair CLR 43 28 56% 39 30.04 1017.7
06 06:53 N 5 10.00 Fair CLR 41 28 46.9 41 60% 38 30.02 1017.0
06 05:53 N 7 10.00 Fair CLR 41 27 57% 37 30 1016.5
06 04:53 N 7 10.00 Fair CLR 42.1 28 58% 38 29.97 1015.3
06 03:53 N 6 10.00 Fair CLR 43 28 56% 40 29.97 1015.3
06 02:53 N 10 10.00 Fair CLR 45 26.1 48% 40 29.96 1014.7
06 01:53 N 8 10.00 Fair CLR 46 28 50% 42 29.95 1014.5
06 00:53 NW 6 10.00 Fair CLR 46.9 27 54 46.9 46% 45 29.97 1015.1
05 23:53 NW 9 10.00 A Few Clouds FEW120 48 27 44% 44 29.93 1013.9
05 22:53 NW 7 10.00 Fair CLR 48 28.9 48% 45 29.93 1013.7
05 21:53 N 9 10.00 Mostly Cloudy BKN120 50 28 43% 47 29.9 1012.9
05 20:53 NW 8 10.00 Partly Cloudy SCT110 51.1 28 41% 29.88 1012.3
05 19:53 NW 10 10.00 Overcast OVC110 53.1 28 38% 29.87 1011.8
05 18:53 NW 5 10.00 Overcast OVC110 54 33.1 55.9 53.1 45% 29.86 1011.2
05 17:53 NW 10 10.00 Overcast OVC110 55 30.9 40% 29.85 1010.9
05 16:53 NW 9 10.00 Overcast OVC095 55.9 34 44% 29.85 1010.9
05 15:53 N 5 10.00 Overcast BKN055 OVC090 55.9 37 49% 29.86 1011.1
05 14:53 NW 8 10.00 Mostly Cloudy FEW048 BKN100 55 36 49% 29.88 1011.8
05 13:53 W 6 10.00 A Few Clouds FEW090 55 37 51% 29.88 1012.0
05 12:53 SW 5 10.00 Partly Cloudy FEW039 SCT100 53.1 37 53.1 46.9 55% 29.89 1012.4
05 11:53 SW 7 10.00 Mostly Cloudy BKN100 52 37 57% 29.9 1012.7
05 10:53 Vrbl 3 10.00 Partly Cloudy SCT110 52 37 57% 29.9 1012.6
05 09:53 Calm 10.00 Mostly Cloudy BKN110 50 37 61% 29.88 1011.9
05 08:53 Calm 10.00 Overcast OVC100 48.9 39.9 71% 29.89 1012.1
05 07:53 N 3 10.00 Partly Cloudy SCT110 48 41 77% 29.84 1010.3
05 06:53 N 3 10.00 Overcast OVC100 46.9 42.1 53.1 46 83% 29.83 1009.8
05 05:53 Calm 10.00 Mostly Cloudy BKN080 48 37.9 68% 29.85 1010.3
05 04:53 S 3 10.00 Overcast OVC080 48.9 37 64% 29.84 1010.1
05 03:53 NE 6 10.00 Overcast OVC080 48.9 34 56% 47 29.8 1008.8
05 02:53 N 12 10.00 Overcast OVC090 50 30.9 48% 46 29.79 1008.3
05 01:53 N 15 G 22 10.00 Mostly Cloudy FEW030 BKN090 51.1 30.9 46% 29.77 1007.6
05 00:53 N 14 G 25 10.00 Overcast BKN090 OVC110 53.1 32 75.9 53.1 45% 29.74 1006.6
04 23:53 N 14 10.00 Fair CLR 54 30.9 42% 29.74 1006.7
04 22:53 N 17 G 32 10.00 Fair CLR 55.9 30 37% 29.72 1005.9
04 21:53 N 20 G 38 10.00 Fair CLR 61 32 34% 29.69 1004.9
04 20:53 N 17 G 30 10.00 Fair CLR 66.9 34 30% 29.65 1003.4
04 19:53 N 16 G 28 10.00 Fair CLR 71.1 37 29% 29.6 1001.8
04 18:53 NW 9 10.00 Partly Cloudy SCT110 75.9 44.1 82 75 32% 77 29.56 1000.5
04 17:53 W 9 10.00 Fair CLR 79 37.9 23% 78 29.56 1000.4
04 16:53 NW 12 10.00 Mostly Cloudy BKN110 81 43 26% 80 29.55 1000.0
04 15:53 W 16 G 22 10.00 A Few Clouds FEW090 81 45 28% 80 29.55 1000.0
04 14:53 W 12 G 23 10.00 Fair CLR 80.1 48 33% 79 29.56 1000.4
04 13:53 SW 10 10.00 Fair CLR 79 46.9 32% 79 29.57 1000.7
04 12:53 SW 8 10.00 Fair CLR 77 51.1 77 55 40% 78 29.58 1001.0
04 11:53 S 13 10.00 Fair CLR 73.9 52 46% 29.59 1001.3
04 10:53 W 12 10.00 Fair CLR 72 48.9 44% 29.59 1001.5
04 09:53 SW 9 G 18 0.00 Fair CLR 68 50 53% 29.6 1001.6
04 08:53 SW 12 G 20 0.00 Fair CLR 64 48.9 58% 29.61 1002.1
04 07:53 S 9 10.00 Fair CLR 57.9 46 65% 29.61 1002.2
04 06:53 S 6 10.00 Fair CLR 55 42.1 60.1 54 62% 29.61 1002.2
04 05:53 S 7 10.00 Fair CLR 55.9 42.1 60% 29.61 1002.4
04 04:53 S 10 10.00 Fair CLR 55 42.1 62% 29.64 1003.2
04 03:53 S 7 10.00 Partly Cloudy SCT120 57 39.9 53% 29.66 1004.1
04 02:53 S 7 10.00 A Few Clouds FEW120 55.9 41 57% 29.7 1005.2
04 01:53 S 7 10.00 Fair CLR 59 39 48% 29.72 1005.8
04 00:53 S 7 10.00 Fair CLR 57.9 41 70 57 53% 29.75 1006.9
03 23:53 SW 3 10.00 Fair CLR 59 41 51% 29.75 1007.0
03 22:53 S 5 10.00 Fair CLR 62.1 39 43% 29.76 1007.5
03 21:53 NW 3 10.00 Fair CLR 64 37.9 38% 29.78 1008.0
03 20:53 W 5 10.00 Fair CLR 66 39 37% 29.78 1008.2
03 19:53 Calm 10.00 Fair CLR 66.9 42.1 41% 29.78 1008.2
03 18:53 NW 6 10.00 Fair CLR 70 39.9 72 68 34% 29.79 1008.7
03 17:53 W 9 10.00 Fair CLR 71.1 37 29% 29.8 1008.8
03 16:53 NW 13 G 23 10.00 Fair CLR 72 37.9 29% 29.8 1009.0
03 15:53 W 15 G 24 10.00 Fair CLR 72 39 30% 29.82 1009.4
03 14:53 W 12 10.00 Fair CLR 69.1 41 36% 29.83 1009.8
03 13:53 NW 16 10.00 Fair CLR 70 42.1 37% 29.84 1010.3
03 12:53 W 13 10.00 Fair CLR 69.1 43 69.1 48.9 39% 29.85 1010.6
Date Time (cdt) Wind (mph) Vis. (mi.) Weather Sky Cond. Air Dwpt Max. Min. Relative Humidity Wind Chill (°F) Heat Index (°F) altimeter (in) sea level (mb) 1 hr 3 hr 6 hr
6 hour
Temperature (ºF) Pressure Precipitation (in)